Location: Hackbridge
(51.3833°N, 0.1500°W)
Time: 06:53:33
(UTC+00:00)

Resurs 1-3 - Pass Details

Date: 13 October 2019
Orbit: 630 x 632 km, 98.0° (Epoch: 12 November)

Event Time Altitude Azimuth Distance (km) Brightness Sun altitude
Exits shadow 19:41:04 42° 26° (NNE) 906 4.3 -23.8°
Drops below altitude 10° 19:44:21 10° 354° (N) 2,028 6.5 -24.2°
Sets 19:46:35 0° 350° (N) 2,941 7.4 -24.6°
